Curacao Island, Netherlands

7:20 AM AST on December 10, 2016 (GMT -0400)
Flamingo

Weather History for TNCB - September, 2011

Change the Weather History Date:

Sunday, September 25, 2011

  Actual Average Record
Temperature  
Mean Temperature 84 °F -  
Max Temperature 89 °F 88 °F 95 °F (1998)
Min Temperature 78 °F 81 °F 70 °F (2012)
Cooling Degree Days 18    
Growing Degree Days 34 (Base 50)    
Moisture  
Dew Point 75 °F    
Average Humidity 75    
Maximum Humidity 89    
Minimum Humidity 55    
Precipitation  
Precipitation 0.04 in - - ()
Sea Level Pressure  
Sea Level Pressure 29.89 in    
Wind  
Wind Speed 6 mph ()    
Max Wind Speed 16 mph    
Max Gust Speed 28 mph    
Visibility 8.2 miles    
Events Rain    
Averages and records for this station are not official NWS values.
T = Trace of Precipitation, MM = Missing Value Source: Averaged Metar Reports

Daily Weather History Graph

Daily Weather History Graph

Search for Another Location

Airport or City:

Trip Planner

Search our weather history database for the weather conditions in past years. The results will help you decide how hot, cold, wet, or windy it might be!

Date:

Astronomy

Sep. 25, 2011 Rise Set
Actual Time 6:22 AM AST 6:27 PM AST
Civil Twilight 6:01 AM AST 6:48 PM AST
Nautical Twilight 5:36 AM AST 7:12 PM AST
Astronomical Twilight 5:11 AM AST 7:37 PM AST
Moon 4:22 AM AST (9/25) 4:56 PM AST (9/25)
Length of Visible Light 12h 47m
Length of Day
12h 05m
Waning Crescent, 5% of the Moon is Illuminated
Sep 25
Waning Crescent
Sep 27
New
Oct 3
First Quarter
Oct 11
Full
Oct 19
Last Quarter

Hourly Weather History & Observations

Time (AST) Temp. Heat Index Dew Point Humidity Pressure Visibility Wind Dir Wind Speed Gust Speed Precip Events Conditions
12:00 AM 82.4 °F 89.5 °F 75.2 °F 79% 29.92 in - North - - N/A   Unknown
1:00 AM 82.4 °F 89.5 °F 75.2 °F 79% 29.92 in - North - - N/A   Unknown
2:00 AM - - - %  in - Calm Calm - -  
2:00 AM 82.4 °F 89.5 °F 75.2 °F 79% 29.92 in - North - - N/A   Unknown
3:00 AM 82.4 °F 89.5 °F 75.2 °F 79% 29.92 in - North - - N/A   Unknown
4:00 AM 82.4 °F 89.5 °F 75.2 °F 79% 29.92 in - North - - N/A   Unknown
5:00 AM 82 °F - 75 °F 75%  in - Calm Calm - -   Clear
5:00 AM 82.4 °F 89.5 °F 75.2 °F 79% 29.92 in - North - - N/A   Unknown
6:00 AM 82.4 °F 89.5 °F 75.2 °F 79% 29.92 in - North - - N/A   Unknown
7:00 AM 82.4 °F 89.5 °F 75.2 °F 79% 29.92 in - North - - N/A   Unknown
8:00 AM - - - %  in - Calm Calm - -  
8:00 AM 82.4 °F 89.5 °F 75.2 °F 79% 29.92 in - North - - N/A   Unknown
9:00 AM 86.0 °F 96.9 °F 77.0 °F 74% 29.92 in 6.2 mi East 16.1 mph - N/A   Scattered Clouds
10:00 AM 86.0 °F 99.3 °F 78.8 °F 79% 29.92 in - North - - N/A   Unknown
11:00 AM 87 °F - 74 °F 58%  in 22 mi Calm Calm - -   Clear
11:00 AM 87.8 °F 97.6 °F 75.2 °F 66% 29.95 in - North - - N/A   Unknown
12:00 PM 86.0 °F 99.3 °F 78.8 °F 79% 29.92 in 6.2 mi ESE 12.7 mph - N/A   Scattered Clouds
1:00 PM 89.6 °F 104.7 °F 78.8 °F 70% 29.89 in - North - - N/A   Unknown
2:00 PM 89 °F - 78 °F 63%  in 6 mi Calm Calm - -  
2:00 PM 87.8 °F 102.5 °F 78.8 °F 75% 29.89 in 6.2 mi North - - N/A   Partly Cloudy
3:00 PM 78.8 °F - 69.8 °F 74% 29.89 in 6.2 mi South 16.1 mph 27.6 mph N/A Rain Light Rain Showers
4:00 PM 82.4 °F 88.2 °F 73.4 °F 74% 29.86 in - North - - N/A   Unknown
5:00 PM 84 °F - 70 °F 55% 29.86 in 19 mi SSE 8.1 mph - -   Partly Cloudy
5:00 PM 84.2 °F 89.6 °F 71.6 °F 66% 29.86 in 6.2 mi SSE 8.1 mph - N/A   Scattered Clouds
6:00 PM 82.4 °F 87.2 °F 71.6 °F 70% 29.83 in - North - - N/A   Unknown
7:00 PM 80.6 °F 85.4 °F 73.4 °F 79% 29.83 in 6.2 mi East 5.8 mph - N/A   Scattered Clouds
8:00 PM 81 °F - 73 °F 70% 29.86 in 16 mi 3.5 mph - -   Partly Cloudy
8:00 PM 80.6 °F 85.4 °F 73.4 °F 79% 29.83 in 6.2 mi Variable 3.5 mph - N/A   Scattered Clouds
9:00 PM 80.6 °F 85.4 °F 73.4 °F 79% 29.86 in - North - - N/A   Unknown
10:00 PM 80.6 °F 86.2 °F 75.2 °F 84% 29.89 in - North - - N/A   Unknown
11:00 PM 80.6 °F 87.1 °F 77.0 °F 89% 29.89 in 6.2 mi North - - N/A   Scattered Clouds